#timestamp,LO_Frequency,Hit,StdDev 
1508029215.8,286046996.7,P
1508029235.6,286046996.8,Y
1508029255.5,286047000.0,P
1508029275.3,286047001.4,N
1508029295.1,286047001.3,N
1508029315.9,286047001.9,N
1508029335.7,286047002.4,N
1508029355.6,286047000.4,N
1508029375.4,286047000.9,N
1508029395.2,286047000.1,N
1508029415.1,286047000.2,N
1508029416.0,286047000.2,N
1508029435.8,286047000.0,N
1508029455.6,286046999.9,N
1508029475.5,286047000.0,N
1508029495.3,286047000.3,N
1508029515.2,286047000.3,N
1508029535.9,286047002.1,N
1508029555.7,286047002.3,N
1508029575.6,286047001.3,N
1508029595.4,286047001.4,N
1508029615.2,286047001.7,N
1508029635.1,286047002.1,N
1508029636.0,286047002.1,N
1508029655.8,286047004.4,Y
1508029675.7,286047001.4,P
1508029695.5,286047001.9,P
1508029715.3,286047002.0,P
1508029735.2,286046998.7,N
1508029755.0,286047000.2,N
1508029755.9,286047000.2,N
1508029775.8,286047000.7,N
1508029795.6,286047000.6,N
1508029815.4,286047000.4,N
1508029835.3,286047000.6,N
1508029855.1,286047000.3,N
1508029875.8,286047000.6,N
1508029895.7,286047001.0,N
1508029915.5,286047000.3,N
1508029935.4,286046999.0,N
1508029955.2,286047000.9,N
1508029975.0,286047000.8,N
1508029975.9,286047000.8,N
1508029995.8,286046998.7,N
1508030015.6,286046997.0,Y
1508030035.5,286046996.9,P
1508030055.3,286046997.0,N
1508030075.1,286046999.5,N
1508030095.9,286046997.1,N
1508030115.7,286046997.0,N
1508030135.5,286046997.8,N
1508030155.4,286046997.4,N
1508030175.2,286046997.4,N
1508030195.1,286046999.3,N
1508030196.0,286046999.3,N
1508030215.8,286046998.6,N
1508030235.6,286046998.6,N
1508030255.5,286046996.9,N
1508030275.3,286046998.7,N
1508030295.1,286046996.9,N
1508030315.9,286046999.4,N
1508030335.7,286046998.9,N
1508030355.6,286046999.2,N
1508030375.4,286046999.3,N
1508030395.2,286046999.5,N
1508030415.1,286046998.9,N
1508030416.0,286046998.9,N
1508030435.8,286047000.7,N
1508030455.7,286046998.5,N
1508030475.5,286047000.7,N
1508030495.3,286047000.9,N
1508030515.2,286047002.5,N
1508030535.0,286047002.0,N
1508030535.9,286047002.0,N
1508030555.7,286047001.9,N
1508030575.6,286047001.9,N
1508030595.4,286047004.3,N
1508030615.3,286047001.5,N
1508030635.1,286047003.8,N
1508030636.0,286047003.8,N
1508030655.8,286047001.3,N
1508030675.7,286047002.6,N
1508030695.5,286047005.6,N
1508030715.4,286047003.5,N
1508030735.2,286047001.7,N
1508030755.0,286047001.9,N
1508030755.9,286047001.9,N
1508030775.8,286047003.8,N
1508030795.6,286047005.4,N
1508030815.4,286047004.7,N
1508030835.3,286047005.3,N
1508030855.1,286047002.9,N
1508030875.9,286047005.2,N
1508030895.7,286047005.3,N
1508030915.5,286047005.4,N
1508030935.4,286047003.2,N
1508030955.2,286047003.1,N
1508030975.1,286047004.4,N
1508030976.0,286047004.4,N
1508030995.8,286047004.3,N
1508031015.6,286047006.0,Y
1508031035.5,286047002.8,P
1508031055.3,286047002.8,P
1508031075.2,286046998.1,P
1508031095.9,286047000.4,N
1508031115.7,286046999.9,N
1508031135.6,286046998.1,N
1508031155.4,286046998.4,N
1508031175.2,286046998.4,N
1508031195.1,286047001.2,N
1508031196.0,286047001.2,N
1508031215.8,286047000.0,N
1508031235.7,286047000.3,N
1508031255.5,286047001.1,N
1508031275.3,286046999.3,N
1508031295.2,286046997.6,N
1508031315.0,286046997.6,N
1508031315.9,286046997.6,N
1508031335.8,286046995.7,N
1508031355.6,286046995.7,N
1508031375.4,286046994.0,N
1508031395.3,286046993.9,N
1508031415.1,286046993.8,N
1508031435.8,286046997.7,N
1508031455.7,286046997.9,N
1508031475.5,286046993.5,N
1508031495.4,286046997.9,N
1508031515.2,286046997.8,N
1508031535.0,286046996.1,N
1508031535.9,286046996.1,N
1508031555.8,286046997.8,N
1508031575.6,286046997.5,N
1508031595.5,286046999.2,N
1508031615.3,286046996.7,N
1508031635.1,286046996.9,N
1508031655.9,286046997.8,N
1508031675.7,286046997.4,N
1508031695.5,286046997.8,N
1508031715.4,286046993.3,Y
1508031735.2,286046997.1,P
1508031755.1,286046998.6,P
1508031756.0,286046998.6,N
1508031775.8,286046997.2,Y
1508031795.6,286046998.3,P
1508031815.5,286046998.8,P
1508031835.3,286046998.9,P
1508031855.2,286046998.6,Y
1508031875.9,286047002.2,P
1508031895.7,286047001.9,N
1508031915.6,286047000.4,N
1508031935.4,286046999.8,N
1508031955.2,286047000.5,N
1508031975.1,286047000.2,N
1508031976.0,286047000.2,N
1508031995.8,286047000.1,N
1508032015.7,286047001.8,N
1508032035.5,286047001.6,N
1508032055.3,286047001.4,N
1508032075.2,286047002.8,N
1508032095.0,286047002.1,N
1508032095.9,286047002.1,N
1508032115.8,286047000.1,N
1508032135.6,286047000.8,N
1508032155.4,286047000.2,N
1508032175.3,286047000.9,N
1508032195.1,286046998.5,N
1508032215.8,286046998.3,N
1508032235.7,286046998.3,N
1508032255.5,286047000.6,N
1508032275.4,286047000.3,N
1508032295.2,286047000.1,N
1508032315.0,286046999.8,N
1508032315.9,286046999.8,N
1508032335.8,286046999.9,N
1508032355.6,286047002.3,N
1508032375.5,286047001.3,N
1508032395.3,286047001.7,N
1508032415.1,286047001.6,N
1508032435.9,286047001.8,N
1508032455.7,286047003.9,Y
1508032475.6,286047005.9,P
1508032495.4,286047003.5,N
1508032515.2,286047003.2,N
1508032535.1,286047004.0,N
1508032536.0,286047004.0,N
1508032555.8,286047004.1,N
1508032575.6,286047003.7,N
1508032595.5,286047001.7,N
1508032615.3,286047002.9,N
1508032635.2,286047003.2,N
1508032655.9,286047004.4,Y
1508032675.7,286047000.4,P
1508032695.6,286046998.6,N
1508032715.4,286046999.1,N
1508032735.3,286046999.5,N
1508032755.1,286046998.5,N
1508032756.0,286046998.5,N
1508032775.8,286046998.5,N
1508032795.7,286047001.2,N
